Location: Aalen
(48.8330°N, 10.1000°E)
Time: 23:39:41
(UTC+02:00)

Transit 4A - Pass Details

Date: 01 August 2021
Orbit: 870 x 974 km, 66.8° (Epoch: 26 September)

Event Time Altitude Azimuth Distance (km) Brightness Sun altitude
Rises 09:28:52 0° 324° (NW) 3,473 10.5 33.5°
Reaches altitude 10° 09:31:21 10° 326° (NW) 2,537 9.9 33.9°
Maximum altitude 09:37:13 80° 53° (NE) 907 8.6 34.8°
Drops below altitude 10° 09:43:11 10° 141° (SE) 2,575 11.1 35.8°
Sets 09:45:43 0° 143° (SE) 3,528 11.6 36.2°
